Check out our new BloomSky Weather System.

Active alerts

Houston, TX
  Details for Houston, TX Dense Fog Advisory


Thunder radar  blitzortung!


Rain radar more information rain snow radar


Visit our other weather sites:

Template documentation
and downloads

And another site



Weather Underground History page Text

Daily Summary for February 14, 2017 Units:  English    Metric   Both
« Previous Day
Next Day »
Daily Weekly Monthly Yearly Custom
  High: Low: Average:
Temperature: 68.0 °F 51.3 °F 59.7 °F
Dew Point: 66.6 °F 44.1 °F 56.3 °F
Humidity: 99 % 76 % 89 %
Wind Speed: 15.0 mph 0.0 mph 3.7 mph
Wind Gust: 21.0 mph - -
Wind:- - SW
Pressure: 30.00 in 29.74 in -
Precipitation: 1.19 in    
Historical Graphs
 
 
Tabular Data for February 14, 2017
Time Temperature Dew Point Pressure Wind Wind Speed Wind Gust Humidity Rainfall Rate (Hourly)
00:03 67.3 °F 64.2 °F 29.92 in SSE 4.0 mph 7.0 mph 90 % 0.00 in
00:08 67.3 °F 64.2 °F 29.92 in SE 4.0 mph 8.0 mph 90 % 0.00 in
00:13 67.5 °F 64.4 °F 29.91 in SE 3.0 mph 8.0 mph 90 % 0.00 in
00:18 67.5 °F 64.4 °F 29.91 in SE 2.0 mph 10.0 mph 90 % 0.00 in
00:23 67.5 °F 64.4 °F 29.91 in SE 5.0 mph 10.0 mph 90 % 0.00 in
00:28 67.5 °F 64.4 °F 29.91 in SE 7.0 mph 10.0 mph 90 % 0.00 in
00:33 67.5 °F 64.4 °F 29.91 in SSE 5.0 mph 10.0 mph 90 % 0.00 in
00:38 67.5 °F 64.4 °F 29.91 in SE 2.0 mph 10.0 mph 90 % 0.00 in
00:43 67.5 °F 64.4 °F 29.91 in East 5.0 mph 10.0 mph 90 % 0.00 in
00:48 67.5 °F 64.4 °F 29.91 in ESE 4.0 mph 8.0 mph 90 % 0.00 in
00:53 67.5 °F 64.4 °F 29.91 in SSE 5.0 mph 7.0 mph 90 % 0.00 in
00:58 67.5 °F 64.4 °F 29.90 in SE 2.0 mph 11.0 mph 90 % 0.00 in
01:03 67.5 °F 64.4 °F 29.90 in SE 5.0 mph 11.0 mph 90 % 0.00 in
01:08 67.5 °F 64.4 °F 29.90 in SE 7.0 mph 11.0 mph 90 % 0.00 in
01:13 67.5 °F 64.4 °F 29.90 in ESE 4.0 mph 9.0 mph 90 % 0.00 in
01:18 67.5 °F 64.4 °F 29.90 in SE 5.0 mph 9.0 mph 90 % 0.00 in
01:23 67.5 °F 64.4 °F 29.89 in SE 2.0 mph 10.0 mph 90 % 0.00 in
01:28 67.6 °F 64.6 °F 29.89 in ESE 4.0 mph 10.0 mph 90 % 0.00 in
01:33 67.6 °F 64.6 °F 29.89 in ESE 4.0 mph 10.0 mph 90 % 0.00 in
01:38 67.5 °F 64.4 °F 29.88 in ESE 4.0 mph 9.0 mph 90 % 0.00 in
01:43 67.5 °F 64.4 °F 29.88 in East 4.0 mph 8.0 mph 90 % 0.00 in
01:49 67.5 °F 64.4 °F 29.88 in ESE 4.0 mph 8.0 mph 90 % 0.00 in
01:54 67.5 °F 64.8 °F 29.88 in East 2.0 mph 9.0 mph 91 % 0.00 in
01:59 67.5 °F 64.8 °F 29.87 in ESE 8.0 mph 9.0 mph 91 % 0.00 in
02:03 67.5 °F 64.8 °F 29.87 in ESE 3.0 mph 9.0 mph 91 % 0.00 in
02:08 67.5 °F 64.8 °F 29.87 in ESE 3.0 mph 8.0 mph 91 % 0.00 in
02:14 67.5 °F 64.8 °F 29.87 in ESE 6.0 mph 8.0 mph 91 % 0.00 in
02:19 67.5 °F 64.8 °F 29.87 in SSE 3.0 mph 8.0 mph 91 % 0.00 in
02:24 67.3 °F 64.6 °F 29.86 in SE 2.0 mph 8.0 mph 91 % 0.00 in
02:29 67.3 °F 64.6 °F 29.86 in ESE 1.0 mph 8.0 mph 91 % 0.00 in
02:34 67.3 °F 64.9 °F 29.86 in SE 4.0 mph 6.0 mph 92 % 0.00 in
02:39 67.3 °F 64.9 °F 29.86 in ESE 4.0 mph 5.0 mph 92 % 0.00 in
02:44 67.3 °F 64.9 °F 29.86 in SE 4.0 mph 6.0 mph 92 % 0.00 in
02:49 67.5 °F 65.1 °F 29.86 in SE 2.0 mph 7.0 mph 92 % 0.00 in
02:54 67.5 °F 65.1 °F 29.86 in ESE 2.0 mph 7.0 mph 92 % 0.00 in
02:59 67.5 °F 65.1 °F 29.86 in Calm   7.0 mph 92 % 0.00 in
03:04 67.5 °F 65.1 °F 29.86 in SE 2.0 mph 5.0 mph 92 % 0.00 in
03:09 67.5 °F 65.1 °F 29.86 in ESE 2.0 mph 4.0 mph 92 % 0.00 in
03:14 67.5 °F 65.1 °F 29.86 in SSE 2.0 mph 6.0 mph 92 % 0.00 in
03:19 67.5 °F 65.1 °F 29.86 in East 2.0 mph 6.0 mph 92 % 0.00 in
03:24 67.5 °F 65.1 °F 29.86 in ESE 4.0 mph 6.0 mph 92 % 0.00 in
03:29 67.6 °F 65.3 °F 29.86 in SSE 2.0 mph 5.0 mph 92 % 0.00 in
03:34 67.6 °F 65.3 °F 29.86 in SE 1.0 mph 5.0 mph 92 % 0.00 in
03:39 67.6 °F 65.3 °F 29.86 in SE 4.0 mph 4.0 mph 92 % 0.00 in
03:44 67.8 °F 65.5 °F 29.86 in SSE 1.0 mph 5.0 mph 92 % 0.00 in
03:49 67.8 °F 65.5 °F 29.86 in SE 3.0 mph 5.0 mph 92 % 0.00 in
03:54 68.0 °F 65.7 °F 29.86 in SE 1.0 mph 5.0 mph 92 % 0.00 in
03:59 67.8 °F 65.5 °F 29.85 in SE 1.0 mph 5.0 mph 92 % 0.00 in
04:04 67.8 °F 65.5 °F 29.84 in ESE 2.0 mph 4.0 mph 92 % 0.00 in
04:09 67.8 °F 65.5 °F 29.84 in ESE 2.0 mph 8.0 mph 92 % 0.00 in
04:14 67.8 °F 65.5 °F 29.83 in SE 2.0 mph 8.0 mph 92 % 0.00 in
04:19 67.6 °F 65.3 °F 29.83 in ESE 2.0 mph 8.0 mph 92 % 0.00 in
04:24 67.6 °F 65.3 °F 29.83 in ESE 3.0 mph 5.0 mph 92 % 0.00 in
04:29 67.6 °F 65.3 °F 29.83 in NE 2.0 mph 4.0 mph 92 % 0.00 in
04:34 67.6 °F 65.3 °F 29.83 in SE 5.0 mph 5.0 mph 92 % 0.00 in
04:39 67.8 °F 65.5 °F 29.83 in ESE 2.0 mph 7.0 mph 92 % 0.00 in
04:44 67.8 °F 65.5 °F 29.83 in SSE 2.0 mph 9.0 mph 92 % 0.00 in
04:49 67.8 °F 65.5 °F 29.83 in SSE 2.0 mph 9.0 mph 92 % 0.00 in
04:54 67.8 °F 65.5 °F 29.83 in ESE 1.0 mph 9.0 mph 92 % 0.00 in
04:59 67.8 °F 65.5 °F 29.83 in ESE 1.0 mph 6.0 mph 92 % 0.00 in
05:04 67.8 °F 65.5 °F 29.83 in South 2.0 mph 5.0 mph 92 % 0.00 in
05:09 67.6 °F 65.3 °F 29.82 in ENE 4.0 mph 6.0 mph 92 % 0.00 in
05:14 67.6 °F 65.5 °F 29.82 in SE 2.0 mph 6.0 mph 93 % 0.00 in
05:19 67.6 °F 65.5 °F 29.81 in SE 6.0 mph 6.0 mph 93 % 0.00 in
05:24 67.6 °F 65.5 °F 29.81 in ESE 4.0 mph 7.0 mph 93 % 0.00 in
05:29 67.5 °F 65.3 °F 29.80 in ESE 5.0 mph 7.0 mph 93 % 0.00 in
05:34 67.5 °F 65.3 °F 29.79 in SSE 4.0 mph 8.0 mph 93 % 0.00 in
05:39 67.3 °F 65.1 °F 29.79 in SE 2.0 mph 8.0 mph 93 % 0.00 in
05:44 67.3 °F 65.1 °F 29.78 in East 2.0 mph 8.0 mph 93 % 0.00 in
05:49 67.3 °F 65.1 °F 29.78 in SSE 3.0 mph 10.0 mph 93 % 0.00 in
05:54 67.3 °F 65.1 °F 29.78 in SE 6.0 mph 10.0 mph 93 % 0.00 in
05:59 67.3 °F 65.1 °F 29.78 in East 2.0 mph 10.0 mph 93 % 0.00 in
06:04 67.3 °F 65.1 °F 29.78 in East 2.0 mph 8.0 mph 93 % 0.00 in
06:10 67.3 °F 65.1 °F 29.78 in NE 2.0 mph 7.0 mph 93 % 0.00 in
06:15 67.3 °F 65.1 °F 29.78 in East 2.0 mph 7.0 mph 93 % 0.00 in
06:20 67.3 °F 65.1 °F 29.77 in ESE 2.0 mph 7.0 mph 93 % 0.00 in
06:25 67.5 °F 65.3 °F 29.76 in ESE 4.0 mph 7.0 mph 93 % 0.00 in
06:30 67.5 °F 65.3 °F 29.76 in SE 6.0 mph 7.0 mph 93 % 0.00 in
06:35 67.5 °F 65.3 °F 29.76 in SSE 2.0 mph 8.0 mph 93 % 0.00 in
06:40 67.5 °F 65.3 °F 29.75 in SE 3.0 mph 9.0 mph 93 % 0.00 in
06:45 67.6 °F 65.5 °F 29.75 in ESE 7.0 mph 9.0 mph 93 % 0.00 in
06:50 67.6 °F 65.5 °F 29.75 in East 2.0 mph 9.0 mph 93 % 0.00 in
06:55 67.6 °F 65.5 °F 29.74 in East 5.0 mph 10.0 mph 93 % 0.00 in
07:00 67.6 °F 65.5 °F 29.74 in SSE 1.0 mph 10.0 mph 93 % 0.00 in
07:05 67.8 °F 65.7 °F 29.75 in East 8.0 mph 12.0 mph 93 % 0.00 in
07:10 67.8 °F 65.5 °F 29.75 in SE 1.0 mph 12.0 mph 92 % 0.00 in
07:15 67.8 °F 65.5 °F 29.75 in SSE 1.0 mph 12.0 mph 92 % 0.00 in
07:20 67.8 °F 65.5 °F 29.76 in SSE 2.0 mph 11.0 mph 92 % 0.00 in
07:25 67.8 °F 65.5 °F 29.76 in SE 3.0 mph 10.0 mph 92 % 0.00 in
07:30 68.0 °F 65.7 °F 29.76 in East 4.0 mph 7.0 mph 92 % 0.00 in
07:35 68.0 °F 65.8 °F 29.76 in South 4.0 mph 7.0 mph 93 % 0.00 in
07:40 68.0 °F 65.8 °F 29.76 in SE 1.0 mph 8.0 mph 93 % 0.00 in
07:45 68.0 °F 65.8 °F 29.77 in SE 7.0 mph 9.0 mph 93 % 0.00 in
07:50 68.0 °F 65.8 °F 29.76 in ESE 2.0 mph 9.0 mph 93 % 0.00 in
07:55 67.8 °F 65.7 °F 29.76 in SSE 4.0 mph 9.0 mph 93 % 0.01 in
08:01 67.8 °F 66.0 °F 29.76 in SSE 4.0 mph 9.0 mph 94 % 0.02 in
08:06 67.8 °F 66.0 °F 29.76 in SE 6.0 mph 9.0 mph 94 % 0.03 in
08:11 67.8 °F 66.0 °F 29.76 in SE 3.0 mph 13.0 mph 94 % 0.04 in
08:16 68.0 °F 66.2 °F 29.76 in SE 5.0 mph 13.0 mph 94 % 0.05 in
08:21 68.0 °F 66.2 °F 29.76 in SSE 3.0 mph 13.0 mph 94 % 0.05 in
08:26 68.0 °F 66.2 °F 29.77 in SE 2.0 mph 11.0 mph 94 % 0.06 in
08:31 68.0 °F 66.6 °F 29.79 in Calm   11.0 mph 95 % 0.08 in
08:36 66.2 °F 62.6 °F 29.81 in West 3.0 mph 9.0 mph 88 % 0.09 in
08:41 63.7 °F 60.6 °F 29.81 in WNW 5.0 mph 12.0 mph 90 % 0.22 in
08:46 61.2 °F 58.8 °F 29.80 in NW 3.0 mph 12.0 mph 92 % 0.49 in
08:51 60.1 °F 58.6 °F 29.80 in NW 4.0 mph 13.0 mph 95 % 0.57 in
08:56 59.2 °F 57.7 °F 29.81 in NNW 4.0 mph 15.0 mph 95 % 0.60 in
09:01 58.5 °F 57.4 °F 29.82 in NNW 1.0 mph 15.0 mph 96 % 0.61 in
09:06 58.1 °F 57.2 °F 29.86 in South 5.0 mph 15.0 mph 97 % 0.72 in
09:11 58.1 °F 57.2 °F 29.81 in WNW 2.0 mph 10.0 mph 97 % 0.86 in
09:16 57.6 °F 56.7 °F 29.85 in NW 4.0 mph 9.0 mph 97 % 1.00 in
09:21 57.2 °F 56.3 °F 29.86 in NNE 4.0 mph 9.0 mph 97 % 1.01 in
09:26 57.0 °F 56.1 °F 29.85 in NNW 5.0 mph 9.0 mph 97 % 1.01 in
09:31 56.7 °F 55.8 °F 29.84 in NNW 7.0 mph 11.0 mph 97 % 1.00 in
09:36 56.5 °F 55.6 °F 29.85 in NW 10.0 mph 13.0 mph 97 % 0.99 in
09:41 56.5 °F 55.9 °F 29.83 in WNW 9.0 mph 13.0 mph 98 % 0.86 in
09:46 56.3 °F 55.8 °F 29.84 in WNW 15.0 mph 17.0 mph 98 % 0.58 in
09:51 56.1 °F 55.6 °F 29.86 in WNW 4.0 mph 17.0 mph 98 % 0.52 in
09:56 55.9 °F 55.4 °F 29.86 in WNW 8.0 mph 17.0 mph 98 % 0.49 in
10:01 55.9 °F 55.4 °F 29.86 in WNW 6.0 mph 15.0 mph 98 % 0.48 in
10:06 55.9 °F 55.4 °F 29.86 in NW 2.0 mph 12.0 mph 98 % 0.37 in
10:11 56.1 °F 55.6 °F 29.85 in NW 2.0 mph 11.0 mph 98 % 0.22 in
10:16 56.1 °F 55.6 °F 29.84 in WNW 3.0 mph 10.0 mph 98 % 0.11 in
10:21 56.1 °F 55.6 °F 29.85 in WNW 2.0 mph 10.0 mph 98 % 0.12 in
10:26 56.1 °F 55.6 °F 29.84 in NW 2.0 mph 10.0 mph 98 % 0.11 in
10:31 56.1 °F 55.6 °F 29.83 in Calm   8.0 mph 98 % 0.10 in
10:36 56.3 °F 55.8 °F 29.83 in ENE 1.0 mph 7.0 mph 98 % 0.11 in
10:41 56.5 °F 55.9 °F 29.83 in Calm   7.0 mph 98 % 0.11 in
10:46 56.7 °F 56.1 °F 29.83 in NW 3.0 mph 4.0 mph 98 % 0.10 in
10:51 56.8 °F 56.5 °F 29.82 in NW 1.0 mph 6.0 mph 99 % 0.10 in
10:56 57.0 °F 56.7 °F 29.81 in Calm   6.0 mph 99 % 0.09 in
11:01 57.4 °F 57.0 °F 29.81 in North 1.0 mph 6.0 mph 99 % 0.08 in
11:06 57.6 °F 57.2 °F 29.81 in North 3.0 mph 6.0 mph 99 % 0.07 in
11:12 57.9 °F 57.6 °F 29.81 in NW 3.0 mph 6.0 mph 99 % 0.05 in
11:17 58.3 °F 57.9 °F 29.81 in NW 2.0 mph 6.0 mph 99 % 0.03 in
11:22 58.3 °F 57.7 °F 29.81 in NNE 4.0 mph 6.0 mph 98 % 0.01 in
11:27 58.3 °F 57.7 °F 29.82 in NE 2.0 mph 9.0 mph 98 % 0.01 in
11:32 58.3 °F 57.7 °F 29.81 in NNW 1.0 mph 9.0 mph 98 % 0.00 in
11:37 58.3 °F 57.7 °F 29.81 in ESE 1.0 mph 9.0 mph 98 % 0.00 in
11:42 58.3 °F 57.7 °F 29.81 in NNW 7.0 mph 7.0 mph 98 % 0.00 in
11:47 58.3 °F 57.7 °F 29.81 in East 2.0 mph 7.0 mph 98 % 0.00 in
11:52 58.8 °F 58.3 °F 29.81 in NNW 3.0 mph 7.0 mph 98 % 0.00 in
11:57 58.8 °F 58.3 °F 29.81 in North 1.0 mph 7.0 mph 98 % 0.00 in
12:02 59.4 °F 58.8 °F 29.81 in NNW 2.0 mph 6.0 mph 98 % 0.00 in
12:07 59.4 °F 58.8 °F 29.81 in Calm   6.0 mph 98 % 0.00 in
12:12 59.5 °F 59.0 °F 29.81 in NE 4.0 mph 4.0 mph 98 % 0.00 in
12:17 59.7 °F 59.2 °F 29.81 in NNW 2.0 mph 6.0 mph 98 % 0.00 in
12:22 60.3 °F 59.7 °F 29.82 in WNW 4.0 mph 6.0 mph 98 % 0.00 in
12:27 60.4 °F 59.9 °F 29.85 in NW 3.0 mph 6.0 mph 98 % 0.00 in
12:32 60.4 °F 59.5 °F 29.85 in WSW 1.0 mph 8.0 mph 97 % 0.00 in
12:37 60.4 °F 59.5 °F 29.85 in NNW 2.0 mph 8.0 mph 97 % 0.00 in
12:42 60.6 °F 59.5 °F 29.85 in West 4.0 mph 8.0 mph 96 % 0.00 in
12:47 61.0 °F 59.5 °F 29.84 in NW 5.0 mph 11.0 mph 95 % 0.00 in
12:52 61.3 °F 59.4 °F 29.84 in SSE 2.0 mph 11.0 mph 93 % 0.00 in
12:57 61.2 °F 58.8 °F 29.84 in NW 3.0 mph 13.0 mph 92 % 0.00 in
13:02 61.2 °F 58.5 °F 29.84 in NW 2.0 mph 13.0 mph 91 % 0.00 in
13:07 60.6 °F 57.4 °F 29.84 in NE 6.0 mph 13.0 mph 89 % 0.00 in
13:12 59.2 °F 55.6 °F 29.84 in NW 4.0 mph 12.0 mph 88 % 0.00 in
13:17 58.3 °F 55.0 °F 29.84 in NNW 2.0 mph 16.0 mph 89 % 0.00 in
13:22 57.2 °F 54.3 °F 29.84 in NNE 6.0 mph 16.0 mph 90 % 0.00 in
13:27 56.5 °F 53.6 °F 29.84 in ESE 5.0 mph 16.0 mph 90 % 0.00 in
13:32 55.6 °F 53.1 °F 29.85 in SE 3.0 mph 14.0 mph 91 % 0.00 in
13:37 54.9 °F 52.3 °F 29.85 in NNW 3.0 mph 13.0 mph 91 % 0.00 in
13:42 54.7 °F 52.3 °F 29.85 in NNE 7.0 mph 12.0 mph 92 % 0.00 in
13:47 54.5 °F 52.2 °F 29.85 in NNW 5.0 mph 12.0 mph 92 % 0.00 in
13:52 54.1 °F 51.8 °F 29.85 in South 3.0 mph 12.0 mph 92 % 0.00 in
13:57 54.1 °F 51.6 °F 29.85 in WNW 5.0 mph 14.0 mph 91 % 0.00 in
14:02 53.8 °F 51.3 °F 29.85 in WNW 8.0 mph 14.0 mph 91 % 0.00 in
14:07 53.6 °F 51.1 °F 29.85 in WNW 3.0 mph 18.0 mph 91 % 0.00 in
14:12 53.6 °F 51.3 °F 29.85 in Calm   18.0 mph 92 % 0.00 in
14:17 53.4 °F 50.9 °F 29.85 in WSW 5.0 mph 21.0 mph 91 % 0.00 in
14:22 53.1 °F 50.5 °F 29.85 in NW 8.0 mph 21.0 mph 91 % 0.00 in
14:27 53.1 °F 50.5 °F 29.86 in WNW 5.0 mph 21.0 mph 91 % 0.00 in
14:32 53.1 °F 50.5 °F 29.86 in NW 2.0 mph 14.0 mph 91 % 0.00 in
14:38 53.1 °F 50.5 °F 29.86 in NE 3.0 mph 13.0 mph 91 % 0.00 in
14:43 52.9 °F 50.0 °F 29.86 in NNW 2.0 mph 15.0 mph 90 % 0.00 in
14:48 52.9 °F 50.0 °F 29.86 in NW 3.0 mph 17.0 mph 90 % 0.00 in
14:53 52.5 °F 49.6 °F 29.86 in WSW 9.0 mph 17.0 mph 90 % 0.00 in
14:58 52.5 °F 49.6 °F 29.86 in NW 4.0 mph 17.0 mph 90 % 0.00 in
15:03 52.3 °F 49.5 °F 29.86 in NNW 3.0 mph 13.0 mph 90 % 0.00 in
15:08 52.5 °F 50.0 °F 29.86 in NNW 7.0 mph 13.0 mph 91 % 0.00 in
15:13 52.7 °F 49.8 °F 29.86 in NNW 3.0 mph 12.0 mph 90 % 0.00 in
15:18 53.1 °F 50.2 °F 29.85 in North 6.0 mph 12.0 mph 90 % 0.00 in
15:23 53.2 °F 50.0 °F 29.85 in NW 3.0 mph 12.0 mph 89 % 0.00 in
15:28 53.6 °F 50.2 °F 29.85 in WNW 3.0 mph 11.0 mph 88 % 0.00 in
15:33 53.8 °F 50.0 °F 29.86 in NNW 3.0 mph 12.0 mph 87 % 0.00 in
15:38 54.1 °F 50.7 °F 29.86 in North 5.0 mph 13.0 mph 88 % 0.00 in
15:43 54.3 °F 50.5 °F 29.86 in WNW 4.0 mph 13.0 mph 87 % 0.00 in
15:48 54.5 °F 50.4 °F 29.86 in NNW 1.0 mph 13.0 mph 86 % 0.00 in
15:53 54.9 °F 50.7 °F 29.85 in NW 7.0 mph 11.0 mph 86 % 0.00 in
15:58 55.0 °F 50.5 °F 29.86 in North 2.0 mph 11.0 mph 85 % 0.00 in
16:03 55.2 °F 50.5 °F 29.86 in NNW 7.0 mph 12.0 mph 84 % 0.00 in
16:08 55.6 °F 50.5 °F 29.86 in WSW 4.0 mph 12.0 mph 83 % 0.00 in
16:13 55.9 °F 50.9 °F 29.85 in NNW 5.0 mph 12.0 mph 83 % 0.00 in
16:18 56.1 °F 50.4 °F 29.85 in WNW 3.0 mph 11.0 mph 81 % 0.00 in
16:23 56.5 °F 51.1 °F 29.86 in NNW 4.0 mph 11.0 mph 82 % 0.00 in
16:28 56.5 °F 50.7 °F 29.86 in NE 2.0 mph 11.0 mph 81 % 0.00 in
16:33 56.7 °F 50.9 °F 29.85 in NW 2.0 mph 10.0 mph 81 % 0.00 in
16:38 57.0 °F 51.3 °F 29.85 in West 7.0 mph 10.0 mph 81 % 0.00 in
16:43 57.2 °F 51.1 °F 29.85 in NW 1.0 mph 13.0 mph 80 % 0.00 in
16:48 57.4 °F 51.3 °F 29.86 in NNW 5.0 mph 13.0 mph 80 % 0.00 in
16:53 57.4 °F 50.9 °F 29.86 in NW 7.0 mph 13.0 mph 79 % 0.00 in
16:58 57.4 °F 50.9 °F 29.86 in WNW 5.0 mph 10.0 mph 79 % 0.00 in
17:03 57.0 °F 50.5 °F 29.86 in West 3.0 mph 10.0 mph 79 % 0.00 in
17:08 56.8 °F 50.7 °F 29.86 in NW 4.0 mph 10.0 mph 80 % 0.00 in
17:18 56.7 °F 50.5 °F 29.86 in NW 5.0 mph 10.0 mph 80 % 0.00 in
17:23 56.5 °F 50.4 °F 29.86 in NW 3.0 mph 10.0 mph 80 % 0.00 in
17:33 56.5 °F 50.7 °F 29.86 in WNW 1.0 mph 11.0 mph 81 % 0.00 in
17:38 56.3 °F 50.5 °F 29.87 in NNW 1.0 mph 11.0 mph 81 % 0.00 in
17:43 56.3 °F 50.5 °F 29.87 in Calm   9.0 mph 81 % 0.00 in
17:48 56.3 °F 50.9 °F 29.87 in NNW 2.0 mph 7.0 mph 82 % 0.00 in
17:53 56.3 °F 50.9 °F 29.88 in WNW 1.0 mph 8.0 mph 82 % 0.00 in
17:59 56.1 °F 50.7 °F 29.88 in NW 1.0 mph 8.0 mph 82 % 0.00 in
18:03 56.1 °F 50.7 °F 29.88 in NW 3.0 mph 8.0 mph 82 % 0.00 in
18:09 56.1 °F 50.4 °F 29.88 in WSW 4.0 mph 5.0 mph 81 % 0.00 in
18:14 56.1 °F 50.4 °F 29.88 in NNW 2.0 mph 10.0 mph 81 % 0.00 in
18:19 56.1 °F 50.4 °F 29.88 in NW 2.0 mph 11.0 mph 81 % 0.00 in
18:24 56.1 °F 50.4 °F 29.89 in NW 1.0 mph 11.0 mph 81 % 0.00 in
18:29 56.1 °F 50.4 °F 29.89 in WSW 1.0 mph 11.0 mph 81 % 0.00 in
18:34 55.9 °F 50.2 °F 29.89 in NNW 6.0 mph 8.0 mph 81 % 0.00 in
18:39 55.9 °F 50.2 °F 29.90 in SW 5.0 mph 7.0 mph 81 % 0.00 in
18:44 55.8 °F 49.3 °F 29.90 in NW 8.0 mph 9.0 mph 79 % 0.00 in
18:49 55.6 °F 48.9 °F 29.90 in West 4.0 mph 13.0 mph 78 % 0.00 in
18:54 55.2 °F 48.7 °F 29.91 in SW 4.0 mph 13.0 mph 79 % 0.00 in
18:59 55.2 °F 49.1 °F 29.91 in WNW 3.0 mph 13.0 mph 80 % 0.00 in
19:04 55.0 °F 48.9 °F 29.91 in NNW 5.0 mph 12.0 mph 80 % 0.00 in
19:09 54.9 °F 48.7 °F 29.91 in NNW 5.0 mph 10.0 mph 80 % 0.00 in
19:14 54.7 °F 48.6 °F 29.91 in NW 2.0 mph 9.0 mph 80 % 0.00 in
19:19 54.5 °F 48.4 °F 29.92 in NNW 2.0 mph 12.0 mph 80 % 0.00 in
19:24 54.3 °F 48.2 °F 29.92 in WSW 3.0 mph 13.0 mph 80 % 0.00 in
19:29 54.1 °F 48.0 °F 29.93 in NE 1.0 mph 13.0 mph 80 % 0.00 in
19:34 54.0 °F 48.0 °F 29.93 in NNW 9.0 mph 13.0 mph 80 % 0.00 in
19:39 53.8 °F 47.8 °F 29.93 in WNW 6.0 mph 14.0 mph 80 % 0.00 in
19:44 53.4 °F 47.5 °F 29.93 in WNW 3.0 mph 14.0 mph 80 % 0.00 in
19:49 53.2 °F 47.3 °F 29.94 in North 10.0 mph 15.0 mph 80 % 0.00 in
19:54 53.2 °F 47.5 °F 29.94 in WSW 4.0 mph 15.0 mph 81 % 0.00 in
19:59 53.1 °F 47.3 °F 29.94 in West 2.0 mph 15.0 mph 81 % 0.00 in
20:04 52.9 °F 46.9 °F 29.95 in WSW 6.0 mph 15.0 mph 80 % 0.00 in
20:09 52.5 °F 46.6 °F 29.95 in WNW 3.0 mph 17.0 mph 80 % 0.00 in
20:14 52.3 °F 46.8 °F 29.96 in West 6.0 mph 17.0 mph 81 % 0.00 in
20:19 52.3 °F 46.8 °F 29.96 in NW 7.0 mph 17.0 mph 81 % 0.00 in
20:24 52.3 °F 46.8 °F 29.96 in NW 10.0 mph 15.0 mph 81 % 0.00 in
20:29 52.3 °F 46.8 °F 29.97 in West 6.0 mph 14.0 mph 81 % 0.00 in
20:34 52.3 °F 46.8 °F 29.96 in NW 5.0 mph 14.0 mph 81 % 0.00 in
20:39 52.2 °F 46.6 °F 29.97 in South 1.0 mph 13.0 mph 81 % 0.00 in
20:44 52.2 °F 46.2 °F 29.97 in NW 7.0 mph 13.0 mph 80 % 0.00 in
20:49 52.0 °F 45.7 °F 29.97 in North 6.0 mph 15.0 mph 79 % 0.00 in
20:54 52.0 °F 46.0 °F 29.98 in WSW 8.0 mph 15.0 mph 80 % 0.00 in
20:59 52.0 °F 46.0 °F 29.98 in NW 3.0 mph 15.0 mph 80 % 0.00 in
21:04 52.0 °F 46.0 °F 29.98 in NW 3.0 mph 14.0 mph 80 % 0.00 in
21:09 52.0 °F 46.0 °F 29.98 in NNW 2.0 mph 11.0 mph 80 % 0.00 in
21:19 52.0 °F 45.7 °F 29.98 in WNW 8.0 mph 11.0 mph 79 % 0.00 in
21:24 52.0 °F 45.7 °F 29.98 in NNW 6.0 mph 12.0 mph 79 % 0.00 in
21:29 51.8 °F 45.5 °F 29.98 in NNW 8.0 mph 12.0 mph 79 % 0.00 in
21:34 51.8 °F 45.5 °F 29.98 in NNW 4.0 mph 12.0 mph 79 % 0.00 in
21:39 51.8 °F 45.1 °F 29.98 in NNW 4.0 mph 12.0 mph 78 % 0.00 in
21:44 51.8 °F 45.1 °F 29.99 in NW 4.0 mph 13.0 mph 78 % 0.00 in
21:49 51.8 °F 45.1 °F 29.98 in NNW 2.0 mph 14.0 mph 78 % 0.00 in
21:54 51.8 °F 45.5 °F 29.99 in WNW 2.0 mph 14.0 mph 79 % 0.00 in
21:59 51.8 °F 45.5 °F 29.99 in WNW 5.0 mph 14.0 mph 79 % 0.00 in
22:04 51.6 °F 45.3 °F 29.99 in West 1.0 mph 11.0 mph 79 % 0.00 in
22:09 51.6 °F 44.6 °F 29.99 in NW 5.0 mph 11.0 mph 77 % 0.00 in
22:14 51.6 °F 44.2 °F 29.99 in NNW 8.0 mph 13.0 mph 76 % 0.00 in
22:19 51.6 °F 44.2 °F 29.99 in NNW 4.0 mph 18.0 mph 76 % 0.00 in
22:24 51.4 °F 44.1 °F 29.99 in West 6.0 mph 18.0 mph 76 % 0.00 in
22:29 51.4 °F 44.1 °F 29.99 in North 7.0 mph 18.0 mph 76 % 0.00 in
22:34 51.4 °F 44.1 °F 29.99 in NW 8.0 mph 14.0 mph 76 % 0.00 in
22:39 51.4 °F 44.1 °F 29.99 in NW 5.0 mph 18.0 mph 76 % 0.00 in
22:44 51.4 °F 44.4 °F 29.99 in NW 5.0 mph 18.0 mph 77 % 0.00 in
22:49 51.3 °F 44.2 °F 29.99 in NNW 8.0 mph 18.0 mph 77 % 0.00 in
22:54 51.3 °F 44.2 °F 29.99 in NW 3.0 mph 17.0 mph 77 % 0.00 in
23:00 51.3 °F 44.2 °F 29.99 in WNW 9.0 mph 16.0 mph 77 % 0.00 in
23:05 51.3 °F 44.2 °F 29.99 in NW 6.0 mph 15.0 mph 77 % 0.00 in
23:10 51.3 °F 44.6 °F 29.99 in NNW 2.0 mph 15.0 mph 78 % 0.00 in
23:15 51.3 °F 44.2 °F 29.99 in NNW 7.0 mph 15.0 mph 77 % 0.00 in
23:20 51.3 °F 44.6 °F 29.99 in Calm   15.0 mph 78 % 0.00 in
23:25 51.3 °F 44.6 °F 29.99 in NNW 2.0 mph 15.0 mph 78 % 0.00 in
23:30 51.3 °F 44.6 °F 30.00 in Calm   11.0 mph 78 % 0.00 in
23:35 51.3 °F 44.6 °F 30.00 in Calm   11.0 mph 78 % 0.00 in
23:40 51.3 °F 44.6 °F 30.00 in NNW 1.0 mph 11.0 mph 78 % 0.00 in
23:45 51.3 °F 44.6 °F 30.00 in WNW 1.0 mph 12.0 mph 78 % 0.00 in
23:50 51.3 °F 44.2 °F 30.00 in NNW 10.0 mph 12.0 mph 77 % 0.00 in
Spring, Texas: Villages of Bridgestone
Compliments of Weather Underground - 2.75 mb

Script developed by  Jim McMurry - jmcmurry@mwt.net Adapted for the template by  Wim van der Kuil - Leuven-Template.eu

You find our weather info also at:

UK Metoffice

WeatherCloud

Weather Underground

Mid-South Weather Network

AWEKAS

Citizen Weather Observer Program (CWOP)

HAMweather, WeatherForYou, PWS Weather

Equipment we use:

Weather-station
Davis Vantage Vue

Weather-program
Meteohub

Weather-server
Debian 7.9 x86 (Guest)

Provider
DreamHost

Davis Vantage Vue

Meteohub

Debian 7.9 x86 (Guest)

DreamHost